Location: Alafon
(8.4500°N, 4.2333°E)
Time: 01:52:16
(UTC+00:00)

USA 215 - Pass Details

Date: 05 July 2020
Orbit: 1102 x 1106 km, 123.0° (Epoch: 31 July)

Event Time Altitude Azimuth Distance (km) Brightness Sun altitude
Rises 19:23:55 0° 34° (NE) 3,907 6.1 -18.4°
Reaches altitude 10° 19:26:24 10° 33° (NNE) 2,951 5.5 -18.9°
Maximum altitude 19:32:55 81° 307° (NW) 1,117 3.3 -20.3°
Drops below altitude 10° 19:39:27 10° 220° (SW) 2,956 5.6 -21.7°
Sets 19:41:55 0° 219° (SW) 3,914 6.3 -22.3°
